Powrót do katalogu

ONEWEB-0689

AktywnyŁącznośćPO
NORAD 61597·PAYLOAD·🇬🇧 United Kingdom

Wystrzelony Oct 20, 2024 z Vandenberg Space Force Base

Loading…

Następne Przeloty (najbliższe 24 godziny)

TLE

ŚwieżeSource: CelesTrak SupGP

Epoka: Sep 14, 2026, 22:29 UTC

1 61597C 24188D   26257.93699491 -.00001612  00000+0 -45552-2 0  2574
2 61597  87.8968   3.2146 0001567 110.0651 350.1114 13.11414727    12

Śledź ONEWEB-0689 w czasie rzeczywistym z AllMySat

Download on the App Store